24-04-2022, 00:00:09,      0,    2.0,    6.5,   0.00,   0.00, 1004.1,   83.7, -999.0
24-04-2022, 00:00:19,      0,    0.6,    6.5,   0.00,   0.00, 1004.1,   83.4, -999.0
24-04-2022, 00:00:28,      0,    0.1,    6.6,   0.00,   0.00, 1004.1,   83.7, -999.0
24-04-2022, 00:00:38,      0,    0.0,    6.5,   0.00,   0.00, 1004.1,   83.2, -999.0
24-04-2022, 00:00:48,     21,    0.3,    6.5,   0.00,   0.00, 1004.1,   83.4, -999.0
24-04-2022, 00:00:58,     24,    0.6,    6.5,   0.00,   0.00, 1004.2,   83.2, -999.0
24-04-2022, 00:01:08,     29,    1.3,    6.5,   0.00,   0.00, 1004.1,   83.3, -999.0
24-04-2022, 00:01:18,     19,    1.1,    6.5,   0.00,   0.00, 1004.2,   83.3, -999.0
24-04-2022, 00:01:28,     20,    0.2,    6.5,   0.00,   0.00, 1004.1,   83.3, -999.0
24-04-2022, 00:01:38,     22,    0.1,    6.4,   0.00,   0.00, 1004.1,   83.1, -999.0
24-04-2022, 00:01:48,     23,    0.1,    6.4,   0.00,   0.00, 1004.1,   83.1, -999.0
24-04-2022, 00:01:58,     25,    0.0,    6.5,   0.00,   0.00, 1004.1,   83.2, -999.0
24-04-2022, 00:02:08,     27,    0.4,    6.5,   0.00,   0.00, 1004.2,   83.7, -999.0
24-04-2022, 00:02:18,     27,    0.2,    6.5,   0.00,   0.00, 1004.1,   83.3, -999.0
24-04-2022, 00:02:28,     65,    0.2,    6.5,   0.00,   0.00, 1004.1,   83.2, -999.0
24-04-2022, 00:02:38,     11,    0.8,    6.5,   0.00,   0.00, 1004.1,   83.3, -999.0
24-04-2022, 00:02:48,     13,    2.6,    6.5,   0.00,   0.00, 1004.2,   83.3, -999.0
24-04-2022, 00:02:58,      8,    0.9,    6.5,   0.00,   0.00, 1004.2,   83.3, -999.0
24-04-2022, 00:03:07,      8,    0.0,    6.5,   0.00,   0.00, 1004.1,   82.9, -999.0
24-04-2022, 00:03:18,     28,    0.3,    6.5,   0.00,   0.00, 1004.1,   83.2, -999.0
24-04-2022, 00:03:28,      8,    3.0,    6.6,   0.00,   0.00, 1004.2,   83.6, -999.0
24-04-2022, 00:03:37,    352,    3.9,    6.6,   0.00,   0.00, 1004.2,   83.4, -999.0
24-04-2022, 00:03:47,      5,    2.5,    6.5,   0.00,   0.00, 1004.2,   83.6, -999.0
24-04-2022, 00:03:57,      0,    0.3,    6.5,   0.00,   0.00, 1004.1,   83.5, -999.0
24-04-2022, 00:04:07,     29,    1.3,    6.5,   0.00,   0.00, 1004.2,   83.3, -999.0
24-04-2022, 00:04:17,     29,    0.2,    6.4,   0.00,   0.00, 1004.1,   83.2, -999.0
24-04-2022, 00:04:27,     41,    1.1,    6.4,   0.00,   0.00, 1004.1,   83.4, -999.0
24-04-2022, 00:04:37,     40,    1.4,    6.5,   0.00,   0.00, 1004.2,   83.5, -999.0
24-04-2022, 00:04:47,     50,    1.0,    6.4,   0.00,   0.00, 1004.2,   83.4, -999.0
24-04-2022, 00:04:57,     51,    0.0,    6.3,   0.00,   0.00, 1004.0,   83.1, -999.0
24-04-2022, 00:05:07,     51,    0.0,    6.5,   0.00,   0.00, 1004.1,   83.3, -999.0
24-04-2022, 00:05:17,     51,    0.0,    6.5,   0.00,   0.00, 1004.0,   83.4, -999.0
24-04-2022, 00:05:27,     51,    0.0,    6.6,   0.00,   0.00, 1004.1,   83.5, -999.0
24-04-2022, 00:05:37,     51,    0.1,    6.5,   0.00,   0.00, 1004.1,   83.7, -999.0
24-04-2022, 00:05:47,     51,    0.2,    6.6,   0.00,   0.00, 1004.0,   83.4, -999.0
24-04-2022, 00:05:57,     51,    0.2,    6.6,   0.00,   0.00, 1004.1,   83.3, -999.0
24-04-2022, 00:06:07,     51,    0.0,    6.6,   0.00,   0.00, 1004.0,   83.2, -999.0
24-04-2022, 00:06:16,     51,    0.2,    6.6,   0.00,   0.00, 1004.1,   83.4, -999.0
24-04-2022, 00:06:27,     51,    0.0,    6.6,   0.00,   0.00, 1004.0,   83.2, -999.0
24-04-2022, 00:06:36,     51,    0.0,    6.6,   0.00,   0.00, 1004.0,   83.3, -999.0
24-04-2022, 00:06:46,     51,    0.0,    6.6,   0.00,   0.00, 1004.1,   83.2, -999.0
24-04-2022, 00:06:57,     50,    0.0,    6.7,   0.00,   0.00, 1004.0,   83.3, -999.0
24-04-2022, 00:07:06,     51,    0.0,    6.7,   0.00,   0.00, 1004.0,   83.3, -999.0
24-04-2022, 00:07:16,     51,    0.0,    6.7,   0.00,   0.00, 1004.0,   83.3, -999.0
24-04-2022, 00:07:26,     10,    0.3,    6.7,   0.00,   0.00, 1004.1,   83.3, -999.0
24-04-2022, 00:07:36,     11,    0.5,    6.7,   0.00,   0.00, 1004.2,   83.1, -999.0
24-04-2022, 00:07:46,     28,    0.1,    6.6,   0.00,   0.00, 1004.1,   82.8, -999.0
24-04-2022, 00:07:56,     31,    0.0,    6.5,   0.00,   0.00, 1004.1,   82.8, -999.0
24-04-2022, 00:08:06,     39,    0.1,    6.5,   0.00,   0.00, 1004.1,   82.8, -999.0
24-04-2022, 00:08:16,     47,    1.4,    6.6,   0.00,   0.00, 1004.2,   83.1, -999.0
24-04-2022, 00:08:26,     49,    0.9,    6.6,   0.00,   0.00, 1004.1,   83.1, -999.0
24-04-2022, 00:08:36,     48,    1.1,    6.6,   0.00,   0.00, 1004.2,   83.2, -999.0
24-04-2022, 00:08:46,     39,    1.6,    6.5,   0.00,   0.00, 1004.2,   83.1, -999.0
24-04-2022, 00:08:56,     16,    1.8,    6.6,   0.00,   0.00, 1004.2,   83.3, -999.0
24-04-2022, 00:09:06,     22,    1.4,    6.6,   0.00,   0.00, 1004.1,   83.0, -999.0
24-04-2022, 00:09:16,     21,    0.3,    6.5,   0.00,   0.00, 1004.1,   82.8, -999.0
24-04-2022, 00:09:25,     21,    0.0,    6.4,   0.00,   0.00, 1004.0,   82.9, -999.0
24-04-2022, 00:09:36,     42,    1.5,    6.5,   0.00,   0.00, 1004.2,   83.0, -999.0
24-04-2022, 00:09:45,     30,    1.2,    6.6,   0.00,   0.00, 1004.1,   83.2, -999.0
24-04-2022, 00:09:55,     35,    2.0,    6.6,   0.00,   0.00, 1004.1,   83.1, -999.0
24-04-2022, 00:10:06,     34,    0.0,    6.5,   0.00,   0.00, 1004.0,   83.0, -999.0
24-04-2022, 00:10:15,     35,    0.3,    6.5,   0.00,   0.00, 1004.1,   83.1, -999.0
24-04-2022, 00:10:25,     57,    0.3,    6.5,   0.00,   0.00, 1004.1,   83.3, -999.0
24-04-2022, 00:10:35,     56,    0.2,    6.5,   0.00,   0.00, 1004.0,   83.2, -999.0
24-04-2022, 00:10:45,     56,    0.0,    6.5,   0.00,   0.00, 1004.0,   83.0, -999.0
24-04-2022, 00:10:55,     56,    0.0,    6.5,   0.00,   0.00, 1004.0,   83.0, -999.0
24-04-2022, 00:11:05,     57,    0.0,    6.5,   0.00,   0.00, 1004.0,   83.0, -999.0
24-04-2022, 00:11:15,     57,    0.0,    6.5,   0.00,   0.00, 1004.0,   83.1, -999.0
24-04-2022, 00:11:25,     54,    0.0,    6.5,   0.00,   0.00, 1004.0,   83.1, -999.0
24-04-2022, 00:11:35,     53,    1.1,    6.6,   0.00,   0.00, 1004.1,   83.3, -999.0
24-04-2022, 00:11:45,     53,    0.3,    6.7,   0.00,   0.00, 1004.2,   83.1, -999.0
24-04-2022, 00:11:55,     55,    0.5,    6.5,   0.00,   0.00, 1004.1,   83.1, -999.0
24-04-2022, 00:12:05,     56,    0.0,    6.5,   0.00,   0.00, 1004.1,   83.1, -999.0
24-04-2022, 00:12:15,     56,    0.0,    6.5,   0.00,   0.00, 1004.0,   82.9, -999.0
24-04-2022, 00:12:24,     36,    0.2,    6.5,   0.00,   0.00, 1004.1,   83.1, -999.0
24-04-2022, 00:12:35,     30,    1.4,    6.6,   0.00,   0.00, 1004.1,   83.3, -999.0
24-04-2022, 00:12:45,      0,    1.4,    6.6,   0.00,   0.00, 1004.1,   83.0, -999.0
24-04-2022, 00:12:54,      0,    0.0,    6.5,   0.00,   0.00, 1004.0,   82.9, -999.0
24-04-2022, 00:13:04,      0,    0.4,    6.6,   0.00,   0.00, 1004.1,   83.1, -999.0
24-04-2022, 00:13:15,      0,    0.0,    6.5,   0.00,   0.00, 1004.0,   82.9, -999.0
24-04-2022, 00:13:24,     11,    0.7,    6.6,   0.00,   0.00, 1004.1,   83.2, -999.0
24-04-2022, 00:13:34,    358,    1.6,    6.5,   0.00,   0.00, 1004.2,   83.2, -999.0
24-04-2022, 00:13:44,     51,    1.4,    6.5,   0.00,   0.00, 1004.1,   83.0, -999.0
24-04-2022, 00:13:54,      0,    3.0,    6.6,   0.00,   0.00, 1004.2,   82.9, -999.0
24-04-2022, 00:14:04,    332,    1.2,    6.5,   0.00,   0.00, 1004.1,   82.8, -999.0
24-04-2022, 00:14:14,      4,    0.0,    6.4,   0.00,   0.00, 1004.0,   82.8, -999.0
24-04-2022, 00:14:24,      4,    0.0,    6.4,   0.00,   0.00, 1004.0,   82.7, -999.0
24-04-2022, 00:14:34,      4,    0.0,    6.4,   0.00,   0.00, 1003.9,   82.9, -999.0
24-04-2022, 00:14:44,     12,    0.1,    6.5,   0.00,   0.00, 1004.0,   83.2, -999.0
24-04-2022, 00:14:54,     22,    0.4,    6.5,   0.00,   0.00, 1004.0,   83.1, -999.0
24-04-2022, 00:15:04,     18,    1.5,    6.5,   0.00,   0.00, 1004.1,   83.3, -999.0
24-04-2022, 00:15:14,      5,    0.8,    6.4,   0.00,   0.00, 1004.1,   83.1, -999.0
24-04-2022, 00:15:24,     19,    0.8,    6.4,   0.00,   0.00, 1004.1,   83.0, -999.0
24-04-2022, 00:15:33,     19,    0.0,    6.3,   0.00,   0.00, 1004.0,   82.9, -999.0
24-04-2022, 00:15:44,     20,    0.2,    6.4,   0.00,   0.00, 1004.1,   83.2, -999.0
24-04-2022, 00:15:54,     20,    0.0,    6.4,   0.00,   0.00, 1004.0,   83.0, -999.0
24-04-2022, 00:16:03,     20,    0.0,    6.4,   0.00,   0.00, 1004.0,   83.0, -999.0
24-04-2022, 00:16:14,     20,    0.0,    6.4,   0.00,   0.00, 1004.0,   83.1, -999.0
24-04-2022, 00:16:24,     21,    0.0,    6.4,   0.00,   0.00, 1004.0,   82.9, -999.0
24-04-2022, 00:16:33,     15,    1.7,    6.4,   0.00,   0.00, 1004.1,   83.4, -999.0
24-04-2022, 00:16:43,     14,    0.5,    6.4,   0.00,   0.00, 1004.1,   83.2, -999.0
24-04-2022, 00:16:53,     15,    0.0,    6.4,   0.00,   0.00, 1004.0,   83.0, -999.0
24-04-2022, 00:17:03,     16,    0.3,    6.6,   0.00,   0.00, 1004.1,   83.2, -999.0
24-04-2022, 00:17:13,     16,    0.2,    6.5,   0.00,   0.00, 1004.1,   83.4, -999.0
24-04-2022, 00:17:23,     16,    0.3,    6.5,   0.00,   0.00, 1004.1,   83.3, -999.0
24-04-2022, 00:17:33,     14,    1.8,    6.5,   0.00,   0.00, 1004.1,   83.3, -999.0
24-04-2022, 00:17:43,     27,    1.9,    6.4,   0.00,   0.00, 1004.1,   83.3, -999.0
24-04-2022, 00:17:53,     44,    1.8,    6.6,   0.00,   0.00, 1004.1,   83.5, -999.0
24-04-2022, 00:18:03,     49,    1.0,    6.4,   0.00,   0.00, 1004.1,   83.2, -999.0
24-04-2022, 00:18:13,     50,    0.0,    6.3,   0.00,   0.00, 1004.0,   83.0, -999.0
24-04-2022, 00:18:23,     51,    0.2,    6.4,   0.00,   0.00, 1004.1,   83.4, -999.0
24-04-2022, 00:18:33,      1,    1.6,    6.4,   0.00,   0.00, 1004.1,   83.5, -999.0
24-04-2022, 00:18:43,     26,    1.4,    6.5,   0.00,   0.00, 1004.1,   83.4, -999.0
24-04-2022, 00:18:53,     40,    2.6,    6.5,   0.00,   0.00, 1004.1,   83.4, -999.0
24-04-2022, 00:19:03,     41,    0.2,    6.4,   0.00,   0.00, 1004.0,   83.2, -999.0
24-04-2022, 00:19:12,     41,    0.2,    6.4,   0.00,   0.00, 1004.1,   83.2, -999.0
24-04-2022, 00:19:23,    352,    1.8,    6.4,   0.00,   0.00, 1004.1,   83.4, -999.0
24-04-2022, 00:19:32,     42,    0.1,    6.4,   0.00,   0.00, 1004.0,   83.2, -999.0
24-04-2022, 00:19:42,     43,    0.0,    6.3,   0.00,   0.00, 1003.9,   83.1, -999.0
24-04-2022, 00:19:52,     42,    0.0,    6.4,   0.00,   0.00, 1004.0,   83.3, -999.0
24-04-2022, 00:20:02,     43,    0.0,    6.5,   0.00,   0.00, 1003.9,   83.3, -999.0
24-04-2022, 00:20:12,     42,    0.0,    6.5,   0.00,   0.00, 1004.0,   83.3, -999.0
24-04-2022, 00:20:22,     43,    0.5,    6.5,   0.00,   0.00, 1004.1,   83.6, -999.0
24-04-2022, 00:20:32,     43,    0.1,    6.5,   0.00,   0.00, 1004.0,   83.4, -999.0
24-04-2022, 00:20:42,     44,    0.1,    6.4,   0.00,   0.00, 1004.0,   83.3, -999.0
24-04-2022, 00:20:52,     44,    0.2,    6.5,   0.00,   0.00, 1004.1,   83.4, -999.0
24-04-2022, 00:21:02,     21,    0.8,    6.5,   0.00,   0.00, 1004.1,   83.3, -999.0
24-04-2022, 00:21:12,     21,    0.1,    6.4,   0.00,   0.00, 1004.1,   83.1, -999.0
24-04-2022, 00:21:22,     23,    0.1,    6.5,   0.00,   0.00, 1004.0,   83.2, -999.0
24-04-2022, 00:21:32,     23,    0.1,    6.4,   0.00,   0.00, 1004.0,   83.3, -999.0
24-04-2022, 00:21:42,     23,    0.0,    6.4,   0.00,   0.00, 1004.0,   83.2, -999.0
24-04-2022, 00:21:52,     24,    0.0,    6.4,   0.00,   0.00, 1004.0,   83.3, -999.0
24-04-2022, 00:22:02,     23,    0.0,    6.4,   0.00,   0.00, 1004.0,   83.3, -999.0
24-04-2022, 00:22:11,     23,    0.0,    6.5,   0.00,   0.00, 1004.0,   83.3, -999.0
24-04-2022, 00:22:21,     21,    0.0,    6.5,   0.00,   0.00, 1004.0,   83.4, -999.0
24-04-2022, 00:22:32,     21,    0.0,    6.4,   0.00,   0.00, 1004.0,   83.2, -999.0
24-04-2022, 00:22:41,     21,    0.0,    6.5,   0.00,   0.00, 1004.0,   83.2, -999.0
24-04-2022, 00:22:51,     24,    0.0,    6.5,   0.00,   0.00, 1004.0,   83.3, -999.0
24-04-2022, 00:23:02,     93,    0.0,    6.4,   0.00,   0.00, 1004.0,   83.3, -999.0
24-04-2022, 00:23:11,     67,    0.8,    6.5,   0.00,   0.00, 1004.1,   83.5, -999.0
24-04-2022, 00:23:21,      0,    0.1,    6.5,   0.00,   0.00, 1004.0,   83.2, -999.0
24-04-2022, 00:23:31,     18,    0.2,    6.5,   0.00,   0.00, 1004.1,   83.5, -999.0
24-04-2022, 00:23:41,     72,    0.4,    6.4,   0.00,   0.00, 1004.1,   83.3, -999.0
24-04-2022, 00:23:51,     37,    0.6,    6.4,   0.00,   0.00, 1004.1,   83.3, -999.0
24-04-2022, 00:24:01,     11,    0.7,    6.4,   0.00,   0.00, 1004.1,   83.2, -999.0
24-04-2022, 00:24:11,     16,    0.0,    6.3,   0.00,   0.00, 1004.0,   83.0, -999.0
24-04-2022, 00:24:21,     16,    0.0,    6.4,   0.00,   0.00, 1004.0,   83.1, -999.0
24-04-2022, 00:24:31,     16,    0.0,    6.4,   0.00,   0.00, 1003.9,   83.1, -999.0
24-04-2022, 00:24:41,     16,    0.0,    6.4,   0.00,   0.00, 1004.0,   83.2, -999.0
24-04-2022, 00:24:50,     17,    0.0,    6.4,   0.00,   0.00, 1003.9,   83.2, -999.0
24-04-2022, 00:25:00,     16,    0.1,    6.4,   0.00,   0.00, 1004.0,   83.3, -999.0
24-04-2022, 00:25:11,     16,    0.0,    6.4,   0.00,   0.00, 1004.0,   83.0, -999.0
24-04-2022, 00:25:21,     16,    0.0,    6.4,   0.00,   0.00, 1004.0,   83.0, -999.0
24-04-2022, 00:25:30,     16,    0.0,    6.4,   0.00,   0.00, 1004.0,   83.1, -999.0
24-04-2022, 00:25:40,     16,    0.0,    6.3,   0.00,   0.00, 1004.0,   83.1, -999.0
24-04-2022, 00:25:51,     16,    0.0,    6.3,   0.00,   0.00, 1004.0,   83.1, -999.0
24-04-2022, 00:26:00,     30,    0.5,    6.3,   0.00,   0.00, 1004.1,   83.1, -999.0
24-04-2022, 00:26:10,     22,    1.7,    6.3,   0.00,   0.00, 1004.1,   83.3, -999.0
24-04-2022, 00:26:20,     31,    1.3,    6.2,   0.00,   0.00, 1004.1,   83.3, -999.0
24-04-2022, 00:26:30,     38,    1.2,    6.3,   0.00,   0.00, 1004.1,   83.4, -999.0
24-04-2022, 00:26:40,     25,    2.5,    6.3,   0.00,   0.00, 1004.1,   83.3, -999.0
24-04-2022, 00:26:50,    354,    1.2,    6.3,   0.00,   0.00, 1004.1,   83.4, -999.0
24-04-2022, 00:27:00,    354,    0.2,    6.2,   0.00,   0.00, 1004.0,   83.1, -999.0
24-04-2022, 00:27:10,     38,    1.0,    6.3,   0.00,   0.00, 1004.1,   83.5, -999.0
24-04-2022, 00:27:20,     35,    0.6,    6.3,   0.00,   0.00, 1004.1,   83.9, -999.0
24-04-2022, 00:27:30,     40,    1.5,    6.2,   0.00,   0.00, 1004.2,   83.7, -999.0
24-04-2022, 00:27:40,     43,    1.4,    6.3,   0.00,   0.00, 1004.1,   83.7, -999.0
24-04-2022, 00:27:50,     48,    0.4,    6.2,   0.00,   0.00, 1004.1,   83.8, -999.0
24-04-2022, 00:28:00,     47,    0.1,    6.2,   0.00,   0.00, 1004.1,   83.7, -999.0
24-04-2022, 00:28:09,     47,    0.0,    6.2,   0.00,   0.00, 1004.0,   83.7, -999.0
24-04-2022, 00:28:20,     47,    0.0,    6.2,   0.00,   0.00, 1004.0,   83.6, -999.0
24-04-2022, 00:28:30,     47,    0.0,    6.3,   0.00,   0.00, 1004.0,   83.6, -999.0
24-04-2022, 00:28:39,     48,    0.0,    6.2,   0.00,   0.00, 1004.0,   83.6, -999.0
24-04-2022, 00:28:49,     47,    0.0,    6.2,   0.00,   0.00, 1003.9,   83.7, -999.0
24-04-2022, 00:29:00,     47,    0.2,    6.3,   0.00,   0.00, 1004.0,   83.9, -999.0
24-04-2022, 00:29:09,     47,    0.0,    6.3,   0.00,   0.00, 1004.0,   83.6, -999.0
24-04-2022, 00:29:19,     47,    0.0,    6.3,   0.00,   0.00, 1004.0,   83.6, -999.0
24-04-2022, 00:29:29,     47,    0.0,    6.2,   0.00,   0.00, 1004.0,   83.7, -999.0
24-04-2022, 00:29:39,     48,    0.3,    6.3,   0.00,   0.00, 1004.0,   83.9, -999.0
24-04-2022, 00:29:49,     50,    1.2,    6.4,   0.00,   0.00, 1004.1,   84.2, -999.0
24-04-2022, 00:29:59,     13,    0.7,    6.3,   0.00,   0.00, 1004.1,   84.1, -999.0
24-04-2022, 00:30:09,     13,    0.1,    6.3,   0.00,   0.00, 1004.0,   83.9, -999.0
24-04-2022, 00:30:19,     13,    0.6,    6.2,   0.00,   0.00, 1004.1,   84.0, -999.0
24-04-2022, 00:30:29,     15,    0.2,    6.4,   0.00,   0.00, 1004.0,   84.0, -999.0
24-04-2022, 00:30:39,     15,    0.0,    6.3,   0.00,   0.00, 1004.0,   83.8, -999.0
24-04-2022, 00:30:49,     15,    0.0,    6.3,   0.00,   0.00, 1004.0,   83.9, -999.0
24-04-2022, 00:30:59,     17,    0.3,    6.4,   0.00,   0.00, 1004.1,   84.0, -999.0
24-04-2022, 00:31:09,     17,    0.0,    6.3,   0.00,   0.00, 1004.0,   83.9, -999.0
24-04-2022, 00:31:19,     17,    1.0,    6.4,   0.00,   0.00, 1004.1,   84.2, -999.0
24-04-2022, 00:31:29,     56,    2.3,    6.3,   0.00,   0.00, 1004.1,   83.9, -999.0
24-04-2022, 00:31:39,     21,    0.8,    6.3,   0.00,   0.00, 1004.1,   83.7, -999.0
24-04-2022, 00:31:48,     33,    1.2,    6.3,   0.00,   0.00, 1004.2,   83.8, -999.0
24-04-2022, 00:31:59,     32,    0.0,    6.2,   0.00,   0.00, 1004.0,   83.6, -999.0
24-04-2022, 00:32:08,     11,    0.2,    6.2,   0.00,   0.00, 1004.1,   83.7, -999.0
24-04-2022, 00:32:18,      7,    0.5,    6.3,   0.00,   0.00, 1004.1,   84.0, -999.0
24-04-2022, 00:32:28,     17,    0.4,    6.3,   0.00,   0.00, 1004.1,   83.9, -999.0
24-04-2022, 00:32:38,     12,    0.6,    6.2,   0.00,   0.00, 1004.1,   83.9, -999.0
24-04-2022, 00:32:48,      0,    1.7,    6.3,   0.00,   0.00, 1004.1,   84.1, -999.0
24-04-2022, 00:32:58,     10,    1.7,    6.3,   0.00,   0.00, 1004.1,   84.3, -999.0
24-04-2022, 00:33:08,     15,    1.6,    6.3,   0.00,   0.00, 1004.1,   84.2, -999.0
24-04-2022, 00:33:18,     16,    0.1,    6.2,   0.00,   0.00, 1004.0,   83.8, -999.0
24-04-2022, 00:33:28,     16,    0.0,    6.1,   0.00,   0.00, 1003.9,   83.8, -999.0
24-04-2022, 00:33:38,     16,    0.0,    6.1,   0.00,   0.00, 1003.9,   83.9, -999.0
24-04-2022, 00:33:48,     16,    0.0,    6.0,   0.00,   0.00, 1004.0,   84.1, -999.0
24-04-2022, 00:33:58,     13,    0.0,    6.3,   0.00,   0.00, 1004.0,   84.1, -999.0
24-04-2022, 00:34:08,      0,    0.7,    6.4,   0.00,   0.00, 1004.1,   84.3, -999.0
24-04-2022, 00:34:18,      0,    0.5,    6.3,   0.00,   0.00, 1004.1,   84.3, -999.0
24-04-2022, 00:34:28,      0,    0.2,    6.3,   0.00,   0.00, 1004.0,   84.3, -999.0
24-04-2022, 00:34:38,     23,    0.0,    6.2,   0.00,   0.00, 1004.0,   84.1, -999.0
24-04-2022, 00:34:47,     28,    0.7,    6.3,   0.00,   0.00, 1004.1,   84.4, -999.0
24-04-2022, 00:34:57,     28,    0.1,    6.3,   0.00,   0.00, 1004.0,   84.1, -999.0
24-04-2022, 00:35:09,     28,    0.5,    6.3,   0.00,   0.00, 1004.1,   84.2, -999.0
24-04-2022, 00:35:17,     21,    0.6,    6.1,   0.00,   0.00, 1004.1,   84.2, -999.0
24-04-2022, 00:35:27,    353,    0.8,    6.1,   0.00,   0.00, 1004.1,   84.1, -999.0
24-04-2022, 00:35:38,     61,    0.6,    6.2,   0.00,   0.00, 1004.1,   84.0, -999.0
24-04-2022, 00:35:47,     61,    0.7,    6.2,   0.00,   0.00, 1004.1,   84.2, -999.0
24-04-2022, 00:36:01,     61,    0.3,    6.2,   0.00,   0.00, 1004.1,   84.1, -999.0
24-04-2022, 00:36:07,     61,    0.0,    6.2,   0.00,   0.00, 1004.0,   84.1, -999.0
24-04-2022, 00:36:17,     61,    0.0,    6.2,   0.00,   0.00, 1004.0,   84.0, -999.0
24-04-2022, 00:36:27,     61,    0.0,    6.2,   0.00,   0.00, 1004.0,   83.9, -999.0
24-04-2022, 00:36:37,     61,    0.0,    6.1,   0.00,   0.00, 1004.0,   83.9, -999.0
24-04-2022, 00:36:47,     61,    0.0,    6.1,   0.00,   0.00, 1004.0,   83.9, -999.0
24-04-2022, 00:36:57,     61,    0.1,    6.2,   0.00,   0.00, 1004.0,   84.2, -999.0
24-04-2022, 00:37:07,     61,    0.0,    6.3,   0.00,   0.00, 1004.0,   84.2, -999.0
24-04-2022, 00:37:17,     61,    0.0,    6.1,   0.00,   0.00, 1004.0,   84.2, -999.0
24-04-2022, 00:37:27,     61,    0.0,    6.2,   0.00,   0.00, 1004.0,   84.1, -999.0
24-04-2022, 00:37:37,     61,    0.0,    6.2,   0.00,   0.00, 1004.0,   84.2, -999.0
24-04-2022, 00:37:47,     61,    0.0,    6.2,   0.00,   0.00, 1004.0,   84.1, -999.0
24-04-2022, 00:37:56,     61,    0.0,    6.1,   0.00,   0.00, 1004.0,   84.1, -999.0
24-04-2022, 00:38:07,     61,    0.0,    6.2,   0.00,   0.00, 1004.0,   84.0, -999.0
24-04-2022, 00:38:17,     27,    0.9,    6.2,   0.00,   0.00, 1004.0,   84.1, -999.0
24-04-2022, 00:38:26,     25,    1.9,    6.2,   0.00,   0.00, 1004.1,   84.3, -999.0
24-04-2022, 00:38:36,     33,    0.5,    6.2,   0.00,   0.00, 1004.1,   84.2, -999.0
24-04-2022, 00:38:47,      1,    1.0,    6.2,   0.00,   0.00, 1004.1,   84.4, -999.0
24-04-2022, 00:38:56,     42,    3.0,    6.2,   0.00,   0.00, 1004.1,   84.4, -999.0
24-04-2022, 00:39:06,      1,    2.2,    6.2,   0.00,   0.00, 1004.1,   84.2, -999.0
24-04-2022, 00:39:16,      0,    0.2,    6.1,   0.00,   0.00, 1004.1,   84.4, -999.0
24-04-2022, 00:39:26,      0,    0.0,    6.1,   0.00,   0.00, 1004.0,   84.3, -999.0
24-04-2022, 00:39:36,     33,    0.0,    6.0,   0.00,   0.00, 1004.0,   84.2, -999.0
24-04-2022, 00:39:46,     40,    1.2,    6.1,   0.00,   0.00, 1004.1,   84.6, -999.0
24-04-2022, 00:39:56,     40,    0.7,    6.2,   0.00,   0.00, 1004.1,   84.6, -999.0
24-04-2022, 00:40:06,     40,    0.1,    6.1,   0.00,   0.00, 1004.1,   84.6, -999.0
24-04-2022, 00:40:16,     47,    0.5,    6.2,   0.00,   0.00, 1004.1,   84.8, -999.0
24-04-2022, 00:40:26,     48,    0.3,    6.1,   0.00,   0.00, 1004.1,   84.7, -999.0
24-04-2022, 00:40:36,     48,    0.1,    6.1,   0.00,   0.00, 1004.0,   84.5, -999.0
24-04-2022, 00:40:46,     48,    0.0,    5.9,   0.00,   0.00, 1003.9,   84.4, -999.0
24-04-2022, 00:40:56,     48,    0.0,    6.1,   0.00,   0.00, 1004.0,   84.5, -999.0
24-04-2022, 00:41:05,     34,    1.5,    6.2,   0.00,   0.00, 1004.1,   84.7, -999.0
24-04-2022, 00:41:16,      5,    2.6,    6.2,   0.00,   0.00, 1004.1,   84.7, -999.0
24-04-2022, 00:41:26,     12,    1.0,    6.2,   0.00,   0.00, 1004.1,   84.7, -999.0
24-04-2022, 00:41:35,     13,    0.3,    6.1,   0.00,   0.00, 1004.1,   84.8, -999.0
24-04-2022, 00:41:46,     15,    0.1,    6.1,   0.00,   0.00, 1004.1,   84.6, -999.0
24-04-2022, 00:41:55,     16,    0.1,    6.1,   0.00,   0.00, 1004.0,   84.5, -999.0
24-04-2022, 00:42:05,     16,    0.0,    6.1,   0.00,   0.00, 1004.0,   84.3, -999.0
24-04-2022, 00:42:15,      0,    0.2,    6.1,   0.00,   0.00, 1004.1,   84.6, -999.0
24-04-2022, 00:42:25,    358,    0.3,    6.0,   0.00,   0.00, 1004.1,   84.6, -999.0
24-04-2022, 00:42:35,     17,    0.6,    6.1,   0.00,   0.00, 1004.1,   84.7, -999.0
24-04-2022, 00:42:45,     17,    0.0,    6.1,   0.00,   0.00, 1004.0,   84.6, -999.0
24-04-2022, 00:42:55,     18,    0.0,    6.0,   0.00,   0.00, 1004.0,   84.6, -999.0
24-04-2022, 00:43:05,     18,    0.0,    6.1,   0.00,   0.00, 1004.0,   84.7, -999.0
24-04-2022, 00:43:15,     18,    0.0,    6.1,   0.00,   0.00, 1003.9,   84.6, -999.0
24-04-2022, 00:43:25,     18,    0.0,    6.1,   0.00,   0.00, 1004.0,   84.7, -999.0
24-04-2022, 00:43:35,     18,    0.0,    6.1,   0.00,   0.00, 1003.9,   84.7, -999.0
24-04-2022, 00:43:45,     23,    0.1,    6.1,   0.00,   0.00, 1004.0,   84.9, -999.0
24-04-2022, 00:43:55,      0,    0.2,    6.1,   0.00,   0.00, 1004.0,   84.9, -999.0
24-04-2022, 00:44:05,      0,    0.1,    6.1,   0.00,   0.00, 1004.0,   84.7, -999.0
24-04-2022, 00:44:15,      0,    0.0,    6.2,   0.00,   0.00, 1004.0,   84.6, -999.0
24-04-2022, 00:44:25,      2,    0.3,    6.2,   0.00,   0.00, 1004.1,   84.9, -999.0
24-04-2022, 00:44:34,     30,    1.0,    6.2,   0.00,   0.00, 1004.1,   85.0, -999.0
24-04-2022, 00:44:44,     15,    0.3,    6.1,   0.00,   0.00, 1004.1,   84.6, -999.0
24-04-2022, 00:44:55,     15,    0.2,    6.1,   0.00,   0.00, 1004.1,   84.9, -999.0
24-04-2022, 00:45:04,     16,    0.0,    6.1,   0.00,   0.00, 1004.0,   84.5, -999.0
24-04-2022, 00:45:14,      0,    1.2,    6.1,   0.00,   0.00, 1004.1,   84.8, -999.0
24-04-2022, 00:45:24,      2,    0.4,    6.1,   0.00,   0.00, 1004.1,   84.8, -999.0
24-04-2022, 00:45:34,     16,    0.5,    6.1,   0.00,   0.00, 1004.1,   84.8, -999.0
24-04-2022, 00:45:44,     16,    0.0,    6.0,   0.00,   0.00, 1004.0,   84.6, -999.0
24-04-2022, 00:45:54,     15,    0.0,    6.1,   0.00,   0.00, 1004.1,   84.8, -999.0
24-04-2022, 00:46:04,     16,    0.1,    6.1,   0.00,   0.00, 1004.1,   84.8, -999.0
24-04-2022, 00:46:14,     16,    0.5,    6.1,   0.00,   0.00, 1004.2,   85.3, -999.0
24-04-2022, 00:46:24,     42,    1.7,    6.1,   0.00,   0.00, 1004.1,   84.8, -999.0
24-04-2022, 00:46:34,     24,    1.0,    6.1,   0.00,   0.00, 1004.1,   84.9, -999.0
24-04-2022, 00:46:44,     29,    1.3,    6.1,   0.00,   0.00, 1004.1,   85.1, -999.0